KLM511 EHAM-EGLL

Flight info

Callsign KLM511
Flight time 0h 47m
Altitude 28000
Route IDRID L980 LOGAN
Aircraft B738/M-SDE2E3FGHIRWXY/LB1

Departure

Time 2026-05-06 15:41
Airport Amsterdam Airport Schiphol (EHAM)

Arrival

Time 2026-05-06 16:28
Airport London Heathrow Airport (EGLL)
Time Latitude Longitude Altitude Speed Heading
2026-05-06 15:10 52.30702 4.77153 -3 ft 0 kts
2026-05-06 15:30 52.30692 4.77152 -3 ft 2 kts
2026-05-06 15:31 52.30676 4.77150 -3 ft 2 kts
2026-05-06 15:31 52.30659 4.77149 -3 ft 2 kts
2026-05-06 15:31 52.30644 4.77146 -3 ft 2 kts 44°
2026-05-06 15:32 52.30644 4.77158 -3 ft 0 kts 79°
2026-05-06 15:34 52.30645 4.77158 -3 ft 1 kts 79°
2026-05-06 15:34 52.30646 4.77220 -3 ft 9 kts 91°
2026-05-06 15:34 52.30644 4.77331 -3 ft 10 kts 92°
2026-05-06 15:34 52.30642 4.77440 -3 ft 10 kts 90°
2026-05-06 15:35 52.30658 4.77558 -3 ft 12 kts 50°
2026-05-06 15:35 52.30738 4.77595 -3 ft 14 kts
2026-05-06 15:35 52.30855 4.77604 -3 ft 19 kts
2026-05-06 15:35 52.31008 4.77619 -3 ft 24 kts
2026-05-06 15:36 52.31167 4.77635 -3 ft 23 kts
2026-05-06 15:36 52.31323 4.77648 -3 ft 22 kts
2026-05-06 15:36 52.31470 4.77616 -3 ft 21 kts 329°
2026-05-06 15:36 52.31568 4.77442 -3 ft 21 kts 294°
2026-05-06 15:37 52.31574 4.77212 -4 ft 20 kts 268°
2026-05-06 15:37 52.31565 4.76988 -4 ft 19 kts 265°
2026-05-06 15:37 52.31558 4.76769 -4 ft 19 kts 268°
2026-05-06 15:37 52.31552 4.76559 -3 ft 18 kts 265°
2026-05-06 15:38 52.31545 4.76348 -3 ft 20 kts 266°
2026-05-06 15:38 52.31536 4.76100 -3 ft 22 kts 266°
2026-05-06 15:38 52.31527 4.75852 -3 ft 21 kts 268°
2026-05-06 15:38 52.31520 4.75613 -4 ft 21 kts 266°
2026-05-06 15:39 52.31511 4.75380 -4 ft 20 kts 265°
2026-05-06 15:39 52.31502 4.75147 -4 ft 22 kts 267°
2026-05-06 15:39 52.31494 4.74901 -3 ft 21 kts 267°
2026-05-06 15:39 52.31510 4.74687 -3 ft 18 kts 322°
2026-05-06 15:40 52.31630 4.74677 -1 ft 18 kts 24°
2026-05-06 15:40 52.31671 4.74857 -4 ft 25 kts 86°
2026-05-06 15:40 52.31698 4.75590 -5 ft 103 kts 86°
2026-05-06 15:40 52.31762 4.77128 -1 ft 168 kts 87°
2026-05-06 15:41 52.31768 4.79249 468 ft 194 kts 90°
2026-05-06 15:41 52.31841 4.81432 1311 ft 200 kts 69°
2026-05-06 15:41 52.32752 4.83062 2062 ft 205 kts 28°
2026-05-06 15:41 52.34228 4.83299 2467 ft 228 kts 345°
2026-05-06 15:42 52.35616 4.82067 3376 ft 223 kts 333°
2026-05-06 15:42 52.36949 4.80778 4215 ft 222 kts 336°
2026-05-06 15:42 52.38329 4.79588 4916 ft 226 kts 334°
2026-05-06 15:42 52.39537 4.77891 5619 ft 232 kts 316°
2026-05-06 15:43 52.40642 4.75964 6333 ft 234 kts 318°
2026-05-06 15:43 52.41796 4.74046 7013 ft 237 kts 318°
2026-05-06 15:43 52.42967 4.72124 7699 ft 239 kts 319°
2026-05-06 15:43 52.44141 4.70209 8342 ft 243 kts 318°
2026-05-06 15:44 52.45344 4.68251 8989 ft 245 kts 317°
2026-05-06 15:44 52.46391 4.65982 9582 ft 252 kts 292°
2026-05-06 15:44 52.46711 4.63201 10286 ft 253 kts 276°
2026-05-06 15:44 52.46750 4.60300 10947 ft 255 kts 271°
2026-05-06 15:45 52.46740 4.57370 11444 ft 264 kts 271°
2026-05-06 15:45 52.46403 4.54298 11594 ft 288 kts 245°
2026-05-06 15:45 52.45118 4.51704 12057 ft 299 kts 217°
2026-05-06 15:45 52.43367 4.49845 12734 ft 301 kts 214°
2026-05-06 15:46 52.41835 4.47545 13347 ft 301 kts 238°
2026-05-06 15:46 52.40797 4.44568 14022 ft 302 kts 243°
2026-05-06 15:46 52.39817 4.41506 14647 ft 305 kts 243°
2026-05-06 15:46 52.38836 4.38420 15285 ft 307 kts 243°
2026-05-06 15:47 52.37840 4.35306 15874 ft 310 kts 243°
2026-05-06 15:47 52.36824 4.32160 16464 ft 313 kts 243°
2026-05-06 15:47 52.35814 4.29049 17060 ft 314 kts 243°
2026-05-06 15:47 52.34769 4.25846 17639 ft 316 kts 243°
2026-05-06 15:48 52.33727 4.22662 18185 ft 320 kts 243°
2026-05-06 15:48 52.32684 4.19482 18720 ft 322 kts 242°
2026-05-06 15:48 52.31617 4.16238 19282 ft 324 kts 242°
2026-05-06 15:48 52.30412 4.13134 19827 ft 327 kts 234°
2026-05-06 15:49 52.29020 4.10168 20341 ft 330 kts 232°
2026-05-06 15:49 52.27576 4.07243 20849 ft 332 kts 232°
2026-05-06 15:49 52.26114 4.04298 21370 ft 334 kts 232°
2026-05-06 15:49 52.24660 4.01343 21850 ft 336 kts 232°
2026-05-06 15:50 52.23193 3.98336 22336 ft 338 kts 232°
2026-05-06 15:50 52.21733 3.95323 22807 ft 340 kts 232°
2026-05-06 15:50 52.20285 3.92325 23260 ft 341 kts 232°
2026-05-06 15:50 52.18812 3.89269 23719 ft 343 kts 232°
2026-05-06 15:51 52.17332 3.86197 24160 ft 345 kts 232°
2026-05-06 15:51 52.15850 3.83121 24569 ft 347 kts 232°
2026-05-06 15:51 52.14354 3.80018 24981 ft 350 kts 232°
2026-05-06 15:51 52.12845 3.76890 25391 ft 351 kts 232°
2026-05-06 15:52 52.11331 3.73756 25794 ft 353 kts 232°
2026-05-06 15:52 52.09799 3.70590 26184 ft 355 kts 232°
2026-05-06 15:52 52.08270 3.67433 26601 ft 356 kts 232°
2026-05-06 15:52 52.06746 3.64290 27123 ft 352 kts 232°
2026-05-06 15:53 52.05236 3.61179 27633 ft 350 kts 231°
2026-05-06 15:53 52.03726 3.58073 27922 ft 352 kts 231°
2026-05-06 15:53 52.02186 3.54908 27919 ft 360 kts 231°
2026-05-06 15:53 52.00627 3.51709 27929 ft 368 kts 231°
2026-05-06 15:54 51.99011 3.48376 27941 ft 377 kts 232°
2026-05-06 15:54 51.97436 3.44944 27939 ft 385 kts 233°
2026-05-06 15:54 51.95858 3.41418 27943 ft 394 kts 234°
2026-05-06 15:54 51.94223 3.37757 27951 ft 401 kts 234°
2026-05-06 15:55 51.92576 3.34090 27949 ft 409 kts 233°
2026-05-06 15:55 51.90883 3.30340 27948 ft 416 kts 233°
2026-05-06 15:55 51.89146 3.26516 27946 ft 423 kts 233°
2026-05-06 15:55 51.87393 3.22646 27943 ft 430 kts 235°
2026-05-06 15:56 51.85902 3.18413 27941 ft 436 kts 245°
2026-05-06 15:56 51.84846 3.13790 27943 ft 442 kts 253°
2026-05-06 15:56 51.84237 3.08871 27939 ft 448 kts 263°
2026-05-06 15:56 51.83922 3.03871 27940 ft 452 kts 264°
2026-05-06 15:57 51.83640 2.98781 27938 ft 457 kts 264°
2026-05-06 15:57 51.83349 2.93628 27945 ft 461 kts 264°
2026-05-06 15:57 51.83036 2.88433 27949 ft 464 kts 263°
2026-05-06 15:57 51.82704 2.83232 27940 ft 465 kts 263°
2026-05-06 15:58 51.82360 2.78029 27933 ft 464 kts 263°
2026-05-06 15:58 51.82019 2.72928 27936 ft 463 kts 263°
2026-05-06 15:58 51.81672 2.67762 27942 ft 462 kts 263°
2026-05-06 15:58 51.81322 2.62609 27939 ft 462 kts 263°
2026-05-06 15:59 51.80967 2.57444 27944 ft 462 kts 263°
2026-05-06 15:59 51.80607 2.52262 27944 ft 461 kts 263°
2026-05-06 15:59 51.80250 2.47131 27949 ft 461 kts 263°
2026-05-06 15:59 51.79890 2.41982 27943 ft 461 kts 263°
2026-05-06 16:00 51.79528 2.36839 27950 ft 460 kts 263°
2026-05-06 16:00 51.79164 2.31700 27955 ft 460 kts 263°
2026-05-06 16:00 51.78800 2.26573 27956 ft 460 kts 262°
2026-05-06 16:00 51.78433 2.21429 27956 ft 460 kts 263°
2026-05-06 16:01 51.78104 2.16298 27801 ft 462 kts 263°
2026-05-06 16:01 51.77803 2.11133 27536 ft 458 kts 264°
2026-05-06 16:01 51.77518 2.06062 27276 ft 449 kts 264°
2026-05-06 16:01 51.77232 2.01040 27029 ft 447 kts 264°
2026-05-06 16:02 51.76941 1.96040 26786 ft 448 kts 264°
2026-05-06 16:02 51.76643 1.91044 26537 ft 447 kts 263°
2026-05-06 16:02 51.76342 1.86076 26290 ft 447 kts 263°
2026-05-06 16:02 51.76038 1.81108 26044 ft 446 kts 263°
2026-05-06 16:03 51.75731 1.76132 25794 ft 445 kts 263°
2026-05-06 16:03 51.75425 1.71183 25544 ft 443 kts 263°
2026-05-06 16:03 51.75117 1.66229 25291 ft 441 kts 263°
2026-05-06 16:03 51.74808 1.61317 24972 ft 437 kts 263°
2026-05-06 16:04 51.74501 1.56499 24979 ft 426 kts 263°
2026-05-06 16:04 51.74199 1.51813 24961 ft 410 kts 263°
2026-05-06 16:04 51.73905 1.47296 24773 ft 400 kts 263°
2026-05-06 16:04 51.73616 1.42883 24384 ft 394 kts 263°
2026-05-06 16:05 51.73325 1.38451 23404 ft 403 kts 263°
2026-05-06 16:05 51.73021 1.33874 22207 ft 418 kts 263°
2026-05-06 16:05 51.72709 1.29180 21448 ft 419 kts 263°
2026-05-06 16:05 51.72401 1.24574 20953 ft 414 kts 263°
2026-05-06 16:06 51.72094 1.19997 20435 ft 409 kts 263°
2026-05-06 16:06 51.71789 1.15463 19874 ft 405 kts 263°
2026-05-06 16:06 51.71482 1.10946 19300 ft 402 kts 263°
2026-05-06 16:06 51.71280 1.07978 18930 ft 400 kts 263°
2026-05-06 16:07 51.70976 1.03541 18367 ft 397 kts 263°
2026-05-06 16:07 51.70669 0.99078 17794 ft 395 kts 264°
2026-05-06 16:07 51.70365 0.94699 17257 ft 391 kts 264°
2026-05-06 16:07 51.70068 0.90418 16732 ft 388 kts 264°
2026-05-06 16:08 51.69764 0.86058 16145 ft 386 kts 264°
2026-05-06 16:08 51.69467 0.81820 15611 ft 383 kts 264°
2026-05-06 16:08 51.69170 0.77568 15089 ft 380 kts 264°
2026-05-06 16:08 51.68873 0.73360 14609 ft 376 kts 264°
2026-05-06 16:09 51.68579 0.69230 14445 ft 363 kts 264°
2026-05-06 16:09 51.68296 0.65260 14297 ft 352 kts 264°
2026-05-06 16:09 51.68019 0.61412 14188 ft 340 kts 264°
2026-05-06 16:09 51.67750 0.57680 14103 ft 328 kts 264°
2026-05-06 16:10 51.67492 0.54111 14024 ft 317 kts 264°
2026-05-06 16:10 51.67238 0.50628 13952 ft 306 kts 264°
2026-05-06 16:10 51.66993 0.47265 13844 ft 297 kts 264°
2026-05-06 16:10 51.66753 0.44000 13646 ft 292 kts 264°
2026-05-06 16:11 51.66516 0.40781 13482 ft 285 kts 264°
2026-05-06 16:11 51.66286 0.37663 13240 ft 282 kts 264°
2026-05-06 16:11 51.66051 0.34494 12963 ft 281 kts 264°
2026-05-06 16:11 51.65822 0.31418 12657 ft 280 kts 264°
2026-05-06 16:12 51.65592 0.28324 12379 ft 278 kts 264°
2026-05-06 16:12 51.65373 0.25253 12095 ft 277 kts 265°
2026-05-06 16:12 51.65191 0.22160 11817 ft 275 kts 266°
2026-05-06 16:12 51.65018 0.19112 11674 ft 268 kts 266°
2026-05-06 16:13 51.64854 0.16182 11587 ft 260 kts 266°
2026-05-06 16:13 51.64694 0.13318 11332 ft 258 kts 266°
2026-05-06 16:13 51.64533 0.10430 10935 ft 262 kts 266°
2026-05-06 16:13 51.64371 0.07502 10552 ft 266 kts 266°
2026-05-06 16:14 51.64206 0.04515 10144 ft 265 kts 266°
2026-05-06 16:14 51.64042 0.01573 9741 ft 263 kts 266°
2026-05-06 16:14 51.63878 -0.01368 9338 ft 262 kts 266°
2026-05-06 16:14 51.63713 -0.04258 8946 ft 260 kts 266°
2026-05-06 16:15 51.63545 -0.07148 8549 ft 260 kts 266°
2026-05-06 16:15 51.63373 -0.10065 8168 ft 264 kts 266°
2026-05-06 16:15 51.63202 -0.12957 8009 ft 258 kts 266°
2026-05-06 16:15 51.63031 -0.15768 7986 ft 247 kts 266°
2026-05-06 16:16 51.62861 -0.18538 7978 ft 242 kts 266°
2026-05-06 16:16 51.62695 -0.21231 7986 ft 243 kts 266°
2026-05-06 16:16 51.62526 -0.23954 7982 ft 245 kts 266°
2026-05-06 16:16 51.62357 -0.26673 8003 ft 246 kts 266°
2026-05-06 16:17 51.62186 -0.29433 7991 ft 247 kts 266°
2026-05-06 16:17 51.62015 -0.32190 7990 ft 247 kts 266°
2026-05-06 16:17 51.61845 -0.34930 7922 ft 247 kts 266°
2026-05-06 16:17 51.61670 -0.37772 7298 ft 258 kts 266°
2026-05-06 16:18 51.61495 -0.40584 7081 ft 249 kts 266°
2026-05-06 16:18 51.61322 -0.43326 6812 ft 243 kts 266°
2026-05-06 16:18 51.61148 -0.46015 6485 ft 241 kts 266°
2026-05-06 16:18 51.60974 -0.48660 6118 ft 241 kts 266°
2026-05-06 16:19 51.60797 -0.51325 5743 ft 240 kts 266°
2026-05-06 16:19 51.60619 -0.53993 5369 ft 239 kts 265°
2026-05-06 16:19 51.60440 -0.56661 4989 ft 238 kts 266°
2026-05-06 16:19 51.60262 -0.59310 4614 ft 238 kts 266°
2026-05-06 16:20 51.60082 -0.61930 4268 ft 234 kts 266°
2026-05-06 16:20 51.59901 -0.64534 3915 ft 233 kts 266°
2026-05-06 16:20 51.59721 -0.67126 3532 ft 234 kts 266°
2026-05-06 16:20 51.59540 -0.69728 3162 ft 234 kts 266°
2026-05-06 16:21 51.59355 -0.72324 2808 ft 233 kts 266°
2026-05-06 16:21 51.59170 -0.74903 2516 ft 228 kts 265°
2026-05-06 16:21 51.58955 -0.77339 2490 ft 213 kts 258°
2026-05-06 16:21 51.58478 -0.79466 2477 ft 197 kts 244°
2026-05-06 16:22 51.57677 -0.81247 2471 ft 196 kts 217°
2026-05-06 16:22 51.56431 -0.81803 2519 ft 192 kts 171°
2026-05-06 16:22 51.55097 -0.81379 2520 ft 200 kts 167°
2026-05-06 16:22 51.53729 -0.80922 2514 ft 199 kts 167°
2026-05-06 16:23 51.52382 -0.80472 2490 ft 195 kts 167°
2026-05-06 16:23 51.51065 -0.80030 2495 ft 193 kts 167°
2026-05-06 16:23 51.49732 -0.79584 2505 ft 196 kts 166°
2026-05-06 16:23 51.48488 -0.78784 2466 ft 192 kts 133°
2026-05-06 16:24 51.47955 -0.76988 2518 ft 177 kts 91°
2026-05-06 16:24 51.47854 -0.75033 2512 ft 177 kts 93°
2026-05-06 16:24 51.47751 -0.73074 2494 ft 173 kts 90°
2026-05-06 16:24 51.47718 -0.71152 2503 ft 174 kts 88°
2026-05-06 16:25 51.47710 -0.69208 2501 ft 174 kts 87°
2026-05-06 16:25 51.47710 -0.67298 2370 ft 165 kts 87°
2026-05-06 16:25 51.47711 -0.65483 2145 ft 158 kts 87°
2026-05-06 16:25 51.47714 -0.63773 1927 ft 151 kts 87°
2026-05-06 16:26 51.47718 -0.62132 1796 ft 147 kts 86°
2026-05-06 16:26 51.47721 -0.60445 1559 ft 149 kts 87°
2026-05-06 16:26 51.47724 -0.58785 1358 ft 149 kts 86°
2026-05-06 16:26 51.47729 -0.57132 1165 ft 148 kts 87°
2026-05-06 16:27 51.47734 -0.55488 948 ft 146 kts 88°
2026-05-06 16:27 51.47735 -0.53842 777 ft 149 kts 88°
2026-05-06 16:27 51.47740 -0.52183 563 ft 150 kts 87°
2026-05-06 16:27 51.47744 -0.50564 375 ft 143 kts 88°
2026-05-06 16:28 51.47747 -0.48991 184 ft 138 kts 89°
2026-05-06 16:28 51.47754 -0.47531 84 ft 110 kts 90°
2026-05-06 16:28 51.47757 -0.46591 89 ft 71 kts 89°
2026-05-06 16:28 51.47759 -0.45876 84 ft 38 kts 90°
2026-05-06 16:29 51.47759 -0.45582 84 ft 18 kts 96°
2026-05-06 16:29 51.47702 -0.45475 85 ft 13 kts 165°
2026-05-06 16:29 51.47614 -0.45484 86 ft 13 kts 211°
2026-05-06 16:29 51.47595 -0.45615 86 ft 12 kts 270°
2026-05-06 16:30 51.47595 -0.45759 86 ft 14 kts 270°
2026-05-06 16:30 51.47595 -0.45868 86 ft 17 kts 269°
2026-05-06 16:30 51.47593 -0.46152 86 ft 22 kts 269°
2026-05-06 16:30 51.47591 -0.46397 86 ft 21 kts 269°
2026-05-06 16:31 51.47592 -0.46631 86 ft 21 kts 270°
2026-05-06 16:31 51.47587 -0.46883 86 ft 23 kts 264°
2026-05-06 16:31 51.47581 -0.47134 86 ft 22 kts 270°
2026-05-06 16:31 51.47581 -0.47378 86 ft 22 kts 270°
2026-05-06 16:32 51.47580 -0.47616 86 ft 21 kts 270°
2026-05-06 16:32 51.47567 -0.47842 86 ft 20 kts 231°
2026-05-06 16:32 51.47451 -0.47875 86 ft 17 kts 181°
2026-05-06 16:32 51.47336 -0.47875 86 ft 16 kts 179°
2026-05-06 16:33 51.47313 -0.47875 86 ft 0 kts 181°
2026-05-06 16:33 51.47309 -0.47878 86 ft 3 kts 200°
2026-05-06 16:34 51.47289 -0.48005 86 ft 4 kts 272°
2026-05-06 16:34 51.47290 -0.48009 86 ft 0 kts 272°